Regional Weather Roundup
Issued by NWS Upton, NY

Current Version | Previous Version | Text Only | Print | Product List | Glossary Off
Versions: 1 2 3 4 5 6 7 8 9 10 11 12 13 14 15 16 17 18 19 20 21 22 23 24 25 26 27 28 29 30 31 32 33 34 35 36 37 38 39 40 41 42 43 44 45 46 47 48 49 50
000 ASUS41 KOKX 310705 RWROKX REGIONAL WEATHER ROUNDUP NATIONAL WEATHER SERVICE NEW YORK NY 200 AM EST SAT JAN 31 2015 NOTE: "FAIR" INDICATES FEW OR NO CLOUDS BELOW 12,000 FEET WITH NO SIGNIFICANT WEATHER AND/OR OBSTRUCTIONS TO VISIBILITY. NYZ071-072-176-178-NJZ106-104-310800- NEW YORK CITY METRO AREA CITY SKY/WX TMP DP RH WIND PRES REMARKS CENTRAL PARK CLEAR 18 1 47 NW18G31 30.07S WCI 2 LAGUARDIA APRT PTCLDY 18 5 57 NW30G46 30.03R WCI -1 KENNEDY INTL PTCLDY 18 2 49 NW22G38 30.03R WCI 1 NEWARK/LIBERTY PTCLDY 16 2 54 NW21G35 30.07R WCI -1 BRNX BOT. GARD N/A N/A N/A N/A NW8 30.05R TETERBORO CLEAR 17 1 49 NW17G31 30.06R WCI 1 $$ NYZ177-179-078>081-310800- LONG ISLAND NEW YORK CITY SKY/WX TMP DP RH WIND PRES REMARKS FARMINGDALE CLEAR 19 4 51 NW14G33 29.98R WCI 6 ISLIP CLEAR 18 3 52 NW23G38 29.92R WCI 0 SHIRLEY CLEAR 17 3 54 NW30G44 29.94R WCI -3 WESTHAMPTON CLEAR 17 3 54 NW32G43 29.91R WCI -3 MONTAUK POINT N/A 18 7 62 NW21G36 29.86R WCI 1 $$ NYZ052-065-067-310800- HUDSON VALLEY CITY SKY/WX TMP DP RH WIND PRES REMARKS WHITE PLAINS CLEAR 15 1 53 NW28G39 29.95R WCI -5 NEWBURGH PTCLDY 14 3 62 NW12G25 30.03R WCI 0 MONTGOMERY CLEAR 13 -2 51 N18G32 30.05R WCI -4 POUGHKEEPSIE CLEAR 15 -3 44 NW17G30 30.05R WCI -1 ALBANY PTCLDY 5 -7 57 W15 30.10R WCI -13 $$ NJZ001-105-106-008-010-013-015-019>022-104-310800- NEW JERSEY CITY SKY/WX TMP DP RH WIND PRES REMARKS NEWARK/LIBERTY PTCLDY 16 2 54 NW21G35 30.07R WCI -1 TETERBORO CLEAR 17 1 49 NW17G31 30.06R WCI 1 CALDWELL CLEAR 15 1 53 NW13G24 30.07R WCI 1 MORRISTOWN CLEAR 18 1 49 NW12G17 30.08R WCI 5 SOMERVILLE CLEAR 16 0 49 NW16G24 30.10R WCI 1 SUSSEX MOCLDY 13 1 59 NW10G21 30.05R WCI 0 ANDOVER N/A 12 -1 56 VRB5G18 30.06R WCI 4 TRENTON CLEAR 15 0 51 NW13G28 30.12R WCI 1 MILLVILLE CLEAR 19 2 47 NW18G31 30.15R WCI 4 ATLANTIC CITY CLEAR 18 3 52 NW23G35 30.11R WCI 0 WRIGHTSTOWN CLEAR 16 2 54 NW16G25 30.09R WCI 0 TOMS RIVER CLEAR 16 1 53 NW18G26 30.09R WCI -1 BELMAR CLEAR 16 0 48 NW22G30 30.05R WCI -2 $$ PAZ047>061-062-071-310800- EASTERN PENNSYLVANIA CITY SKY/WX TMP DP RH WIND PRES REMARKS PHILADELPHIA CLEAR 18 -1 43 NW20G32 30.18R WCI 2 ALLENTOWN CLEAR 13 -3 49 NW20G26 30.15R WCI -5 SCRANTON CLOUDY 11 -1 58 NW17G33 30.15R WCI -6 $$ CTZ002-004>006-009-010-012-RIZ004-006-007-MAZ004-011-015-310800- SOUTHERN NEW ENGLAND IN CT CITY SKY/WX TMP DP RH WIND PRES REMARKS BRADLEY INTL CLEAR 11 -2 56 NW10 29.92R WCI -3 HARTFORD CLEAR 11 -2 56 NW15G24 29.95R WCI -5 DANBURY CLEAR 12 -3 51 NW13G26 29.97R WCI -3 WTRBRY/OXFORD PTCLDY 9 -8 47 NW22G35 29.89R WCI -11 BRIDGEPORT CLEAR 15 2 56 NW15G31 29.94S WCI 0 MERIDEN CLEAR 12 -3 51 NW17G32 29.94R WCI -5 NEW HAVEN CLEAR 14 -2 49 NW17G32 29.93R WCI -3 CHESTER FAIR 12 1 62 NW17G35 29.85R WCI -5 GROTON CLEAR 13 2 61 NW30G46 29.82S WCI -8 WILLIMANTIC CLEAR 13 1 59 NW10 29.86R WCI 0 IN RI CITY SKY/WX TMP DP RH WIND PRES REMARKS PROVIDENCE CLOUDY 17 3 54 NW22G30 29.78R WCI 0 BLOCK ISLAND CLOUDY 18 3 53 NW18G29 29.78R WCI 2 WESTERLY CLEAR 14 2 58 NW18G31 29.81R WCI -3 IN MA CITY SKY/WX TMP DP RH WIND PRES REMARKS BOSTON LGT SNOW 16 6 65 NW25G36 29.72S WCI -3 WORCESTER CLOUDY 9 0 67 NW29G43 29.71S BLWGSNOWWCI -13 WESTFIELD CLEAR 11 -2 56 NW16G32 29.91R WCI -6 PROVINCETOWN CLOUDY 21 18 86 NW29G39 29.66R WCI 3 NANTUCKET CLOUDY 24 14 65 NW22G31 29.66R WCI 9 $$ ANZ330-335-338-340-345-350-353-355-310800- COASTAL MARINE OBSERVATIONS STATION/POSITION TIME SKY/WX TEMP WIND PRES VSBY WAVE AIR SEA DIR/SP/G HT/PER (UTC) (F) (DEG/KT/KT) (MB) (MI) (FT/S) NY HARB ENTRANCE 0700 22 40 310/ 33/ 43 1015.3 8/ 6 4S FIRE IS 0700 38 N/A 5/ 6 20S FIRE ISLAND 0600 41 1013.6 9/ 7 23SW MTP 0700 N/A 9/ 6 HUDSON CANYON NOT AVBL EXECUTION ROCKS 0700 20 33 310/ 19/ 25 N/A WESTERN LI SOUND 0700 21 310/ 21/ 27 N/A 2/ 3 CENTRAL LI SOUND 0600 17 35 310/ 29/ 37 N/A 5/ 5 EASTERN LI SOUND NOT AVBL ROBBINS REEF 0600 17 320/ 22/ 29 1016.3 $$ >>>>>>>>>>>>>>>>>>>>>>>>>>>> KEY <<<<<<<<<<<<<<<<<<<<<<<<<<< > < > SKY/WX - SKY CONDITION/PRESENT WEATHER < > TMP - TEMPERATURE IN FAHRENHEIT < > DP - DEWPOINT IN FAHRENHEIT < > RH - RELATIVE HUMIDITY IN PERCENT < > WIND - DIRECTION AND SPEED IN MPH < > PRES - MEAN SEA LEVEL PRESSURE IN INCHES OF HG < > WCI - WIND CHILL INDEX < > VSB - VISIBILITY IN MILES < > HX - HEAT INDEX < > TC - TEMPERATURE IN CELSIUS < > VRB - VARIABLE WIND DIRECTION < > < >>>>>>>>>>>>>>>>>>>>>>>>>>>> KEY <<<<<<<<<<<<<<<<<<<<<<<<<<<

USA.gov is the U.S. government's official web portal to all federal, state and local government web resources and services.